| time (UTC) | temp F | wind direction | speed MPH | gust MPH | rain 1hr in | rain 24hr in | rain mn in | humidity % | barometer mb |
| 20260906064524 | 68 | 0.0 | 0.0 | 0.00 | 0.00 | 0.00 | 89 | 1011.2 | |
| 20260906063030 | 68 | 0.0 | 0.0 | 0.00 | 0.00 | 0.00 | 90 | 1011.3 | |
| 20260906061523 | 68 | 0.0 | 0.0 | 0.00 | 0.00 | 0.00 | 89 | 1011.3 | |
| 20260906060022 | 69 | 0.0 | 0.0 | 0.00 | 0.00 | 0.00 | 88 | 1011.2 | |
| 20260906054527 | 69 | 0.0 | 0.0 | 0.00 | 0.00 | 0.00 | 87 | 1011.2 | |
| 20260906053019 | 69 | 0.0 | 0.0 | 0.00 | 0.00 | 0.00 | 87 | 1011.3 | |
| 20260906051519 | 70 | 0.0 | 0.0 | 0.00 | 0.00 | 0.00 | 86 | 1011.2 | |
| 20260906050019 | 70 | 0.0 | 0.0 | 0.00 | 0.00 | 0.00 | 85 | 1011.2 | |
| 20260906044512 | 71 | 0.0 | 0.0 | 0.00 | 0.00 | 0.00 | 85 | 1011.1 | |
| 20260906043011 | 71 | 0.0 | 0.0 | 0.00 | 0.00 | 0.00 | 84 | 1011.4 | |
| 20260906041509 | 71 | 0.0 | 0.0 | 0.00 | 0.00 | 0.00 | 83 | 1011.5 | |
| 20260906040007 | 71 | 0.0 | 0.0 | 0.00 | 0.00 | 0.00 | 83 | 1011.5 | |
| 20260906034506 | 71 | 0.0 | 0.0 | 0.00 | 0.00 | 0.00 | 83 | 1011.3 | |
| 20260906033006 | 71 | 0.0 | 0.0 | 0.00 | 0.00 | 0.00 | 83 | 1011.7 | |
| 20260906031513 | 71 | 0.0 | 0.0 | 0.00 | 0.00 | 0.00 | 82 | 1011.9 | |
| 20260906030009 | 71 | 0.0 | 0.0 | 0.00 | 0.00 | 0.00 | 81 | 1011.9 | |
| 20260906024511 | 72 | 0.0 | 0.0 | 0.00 | 0.00 | 0.00 | 79 | 1011.8 | |
| 20260906023003 | 72 | 0.0 | 0.0 | 0.00 | 0.00 | 0.00 | 79 | 1011.9 | |
| 20260906021503 | 73 | 0.0 | 0.0 | 0.00 | 0.00 | 0.00 | 77 | 1011.9 | |
| 20260906020002 | 73 | 0.0 | 0.0 | 0.00 | 0.00 | 0.00 | 76 | 1011.7 | |
| 20260906014503 | 74 | 0.0 | 0.0 | 0.00 | 0.00 | 0.00 | 76 | 1011.6 | |
| 20260906013001 | 74 | 0.0 | 0.0 | 0.00 | 0.00 | 0.00 | 75 | 1011.4 | |
| 20260906011502 | 75 | 0.0 | 0.0 | 0.00 | 0.00 | 0.00 | 74 | 1011.3 | |
| 20260906010100 | 75 | 0.0 | 0.0 | 0.00 | 0.00 | 0.00 | 73 | 1011.1 | |
| 20260906004603 | 76 | 0.0 | 0.0 | 0.00 | 0.00 | 0.00 | 71 | 1011.0 | |
| 20260906003059 | 76 | 0.0 | 0.0 | 0.00 | 0.00 | 0.00 | 70 | 1010.9 | |
| 20260906001559 | 77 | 0.0 | 0.0 | 0.00 | 0.00 | 0.00 | 69 | 1010.8 | |
| 20260906000106 | 77 | 0.0 | 0.0 | 0.00 | 0.00 | 0.00 | 68 | 1010.6 | |
| 20260905234605 | 78 | 0.0 | 0.0 | 0.00 | 0.00 | 0.00 | 65 | 1010.6 | |
| 20260905233058 | 79 | 0.0 | 0.0 | 0.00 | 0.00 | 0.00 | 64 | 1010.4 | |
| 20260905231557 | 80 | 0.0 | 0.0 | 0.00 | 0.00 | 0.00 | 62 | 1010.4 | |
| 20260905230057 | 80 | 0.0 | 0.0 | 0.00 | 0.00 | 0.00 | 61 | 1010.6 | |
| 20260905224555 | 81 | 0.0 | 0.0 | 0.00 | 0.00 | 0.00 | 60 | 1010.6 | |
| 20260905223054 | 81 | 0.0 | 0.0 | 0.00 | 0.00 | 0.00 | 60 | 1010.5 | |
| 20260905221554 | 82 | 0.0 | 0.0 | 0.00 | 0.00 | 0.00 | 59 | 1010.4 | |
| 20260905220053 | 82 | 0.0 | 0.0 | 0.00 | 0.00 | 0.00 | 59 | 1010.3 | |
| 20260905214553 | 82 | 0.0 | 0.0 | 0.00 | 0.00 | 0.00 | 60 | 1010.0 | |
| 20260905213059 | 83 | 0.0 | 0.0 | 0.00 | 0.00 | 0.00 | 59 | 1009.9 | |
| 20260905211606 | 83 | 0.0 | 0.0 | 0.00 | 0.00 | 0.00 | 58 | 1009.8 | |
| 20260905204554 | 83 | 0.0 | 0.0 | 0.00 | 0.00 | 0.00 | 57 | 1009.8 | |
| 20260905203051 | 83 | 0.0 | 0.0 | 0.00 | 0.00 | 0.00 | 56 | 1009.7 | |
| 20260905201556 | 83 | 0.0 | 0.0 | 0.00 | 0.00 | 0.00 | 55 | 1009.7 | |
| 20260905194549 | 83 | 0.0 | 0.0 | 0.00 | 0.00 | 0.00 | 56 | 1009.5 | |
| 20260905193048 | 82 | 0.0 | 0.0 | 0.00 | 0.00 | 0.00 | 57 | 1009.7 | |
| 20260905191548 | 82 | 0.0 | 0.0 | 0.00 | 0.00 | 0.00 | 59 | 1009.9 | |
| 20260905190044 | 82 | 0.0 | 0.0 | 0.00 | 0.00 | 0.00 | 60 | 1009.9 | |
| 20260905184541 | 82 | 0.0 | 0.0 | 0.00 | 0.00 | 0.00 | 63 | 1010.3 | |
| 20260905183039 | 82 | 0.0 | 0.0 | 0.00 | 0.00 | 0.00 | 66 | 1010.7 | |
| 20260905181537 | 81 | 0.0 | 0.0 | 0.00 | 0.00 | 0.00 | 68 | 1011.0 | |
| 20260905180036 | 80 | 0.0 | 0.0 | 0.00 | 0.00 | 0.00 | 72 | 1011.3 | |
| 20260905174537 | 79 | 0.0 | 0.0 | 0.00 | 0.00 | 0.00 | 69 | 1011.2 | |
| 20260905173053 | 80 | 0.0 | 0.0 | 0.00 | 0.00 | 0.00 | 69 | 1011.3 | |
| 20260905171539 | 80 | 0.0 | 0.0 | 0.00 | 0.00 | 0.00 | 68 | 1011.1 | |
| 20260905170033 | 81 | 0.0 | 0.0 | 0.00 | 0.00 | 0.00 | 67 | 1011.2 | |
| 20260905164533 | 81 | 0.0 | 0.0 | 0.00 | 0.00 | 0.00 | 65 | 1011.6 | |
| 20260905163032 | 81 | 0.0 | 0.0 | 0.00 | 0.00 | 0.00 | 67 | 1011.7 | |
| 20260905161532 | 79 | 0.0 | 0.0 | 0.00 | 0.00 | 0.00 | 68 | 1011.8 | |
| 20260905160034 | 76 | 0.0 | 0.0 | 0.00 | 0.00 | 0.00 | 74 | 1012.3 | |
| 20260905154534 | 76 | 0.0 | 0.0 | 0.00 | 0.00 | 0.00 | 73 | 1012.3 | |
| 20260905153030 | 76 | 0.0 | 0.0 | 0.00 | 0.00 | 0.00 | 71 | 1012.7 | |
| 20260905151530 | 77 | 0.0 | 0.0 | 0.00 | 0.00 | 0.00 | 69 | 1012.5 | |
| 20260905150029 | 78 | 0.0 | 0.0 | 0.00 | 0.00 | 0.00 | 69 | 1012.8 | |
| 20260905144527 | 81 | 0.0 | 0.0 | 0.00 | 0.00 | 0.00 | 69 | 1012.6 | |
| 20260905143032 | 82 | 0.0 | 0.0 | 0.00 | 0.00 | 0.00 | 70 | 1011.7 | |
| 20260905141528 | 83 | 0.0 | 0.0 | 0.00 | 0.00 | 0.00 | 67 | 1011.8 | |
| 20260905140021 | 85 | 0.0 | 0.0 | 0.00 | 0.00 | 0.00 | 67 | 1011.9 | |
| 20260905134517 | 83 | 0.0 | 0.0 | 0.00 | 0.00 | 0.00 | 70 | 1011.7 | |
| 20260905133013 | 81 | 0.0 | 0.0 | 0.00 | 0.00 | 0.00 | 75 | 1011.8 | |
| 20260905131514 | 79 | 0.0 | 0.0 | 0.00 | 0.00 | 0.00 | 76 | 1011.7 | |
| 20260905130006 | 77 | 0.0 | 0.0 | 0.00 | 0.00 | 0.00 | 79 | 1011.7 | |
| 20260905124502 | 75 | 0.0 | 0.0 | 0.00 | 0.00 | 0.00 | 84 | 1011.8 | |
| 20260905123057 | 72 | 0.0 | 0.0 | 0.00 | 0.00 | 0.00 | 87 | 1011.8 | |
| 20260905121556 | 70 | 0.0 | 0.0 | 0.00 | 0.00 | 0.00 | 92 | 1011.8 | |
| 20260905120052 | 68 | 0.0 | 0.0 | 0.00 | 0.00 | 0.00 | 93 | 1011.6 | |
| 20260905114552 | 68 | 0.0 | 0.0 | 0.00 | 0.00 | 0.00 | 92 | 1011.5 | |
| 20260905113052 | 68 | 0.0 | 0.0 | 0.00 | 0.00 | 0.00 | 92 | 1011.6 | |
| 20260905111551 | 68 | 0.0 | 0.0 | 0.00 | 0.00 | 0.00 | 91 | 1011.6 | |
| 20260905110106 | 69 | 0.0 | 0.0 | 0.00 | 0.00 | 0.00 | 90 | 1011.5 | |
| 20260905104549 | 69 | 0.0 | 0.0 | 0.00 | 0.00 | 0.00 | 90 | 1011.5 | |
| 20260905103052 | 69 | 0.0 | 0.0 | 0.00 | 0.00 | 0.00 | 90 | 1011.3 | |
| 20260905101602 | 69 | 0.0 | 0.0 | 0.00 | 0.00 | 0.00 | 91 | 1011.3 | |
| 20260905100047 | 69 | 0.0 | 0.0 | 0.00 | 0.00 | 0.00 | 91 | 1011.3 | |
| 20260905094547 | 69 | 0.0 | 0.0 | 0.00 | 0.00 | 0.00 | 90 | 1011.2 | |
| 20260905093046 | 70 | 0.0 | 0.0 | 0.00 | 0.00 | 0.00 | 89 | 1011.3 | |
| 20260905091600 | 70 | 0.0 | 0.0 | 0.00 | 0.00 | 0.00 | 89 | 1011.2 | |
| 20260905090045 | 70 | 0.0 | 0.0 | 0.00 | 0.00 | 0.00 | 89 | 1011.3 | |
| 20260905084544 | 70 | 0.0 | 0.0 | 0.00 | 0.00 | 0.00 | 89 | 1011.2 | |
| 20260905083043 | 70 | 0.0 | 0.0 | 0.00 | 0.00 | 0.00 | 90 | 1011.3 | |
| 20260905081542 | 69 | 0.0 | 0.0 | 0.00 | 0.00 | 0.00 | 91 | 1011.4 | |
| 20260905080040 | 69 | 0.0 | 0.0 | 0.00 | 0.00 | 0.00 | 92 | 1011.6 | |
| 20260905074540 | 69 | 0.0 | 0.0 | 0.00 | 0.00 | 0.00 | 92 | 1011.7 | |
| 20260905073037 | 69 | 0.0 | 0.0 | 0.00 | 0.00 | 0.00 | 92 | 1011.8 | |
| 20260905071536 | 69 | 0.0 | 0.0 | 0.00 | 0.00 | 0.00 | 91 | 1012.0 | |
| 20260905070035 | 70 | 0.0 | 0.0 | 0.00 | 0.00 | 0.00 | 91 | 1012.1 |